Goldsboro, NC

6:47 AM EDT on June 21, 2018 (GMT -0400)
Seymour Johnson Air Force Base

Weather History for KGSB - June, 2018

Change the Weather History Date:

Thursday, June 14, 2018

  Actual Average Record
Temperature  
Mean Temperature 82 °F -  
Max Temperature 93 °F 85 °F 98 °F (2002)
Min Temperature 73 °F 67 °F 59 °F (2007)
Cooling Degree Days 18    
Growing Degree Days 32 (Base 50)    
Moisture  
Dew Point 72 °F    
Average Humidity 76    
Maximum Humidity 94    
Minimum Humidity 45    
Precipitation  
Precipitation 0.00 in - - ()
Sea Level Pressure  
Sea Level Pressure 29.93 in    
Wind  
Wind Speed 6 mph (SW)    
Max Wind Speed 13 mph    
Max Gust Speed -    
Visibility 10 miles    
Events Thunderstorm    
Averages and records for this station are not official NWS values.
T = Trace of Precipitation, MM = Missing Value Source: NWS Daily Summary

Daily Weather History Graph

Daily Weather History Graph

Search for Another Location

Airport or City:

Astronomy

Jun. 14, 2018 Rise Set
Actual Time 5:56 AM EDT 8:28 PM EDT
Civil Twilight 5:26 AM EDT 8:57 PM EDT
Nautical Twilight 4:49 AM EDT 9:34 PM EDT
Astronomical Twilight 4:08 AM EDT 10:15 PM EDT
Moon 6:49 AM EDT (6/14) 9:28 PM EDT (6/14)
Length of Visible Light 15h 31m
Length of Day
14h 31m
New Moon, 1% of the Moon is Illuminated
Jun 14
New Moon
Jun 20
First Quarter
Jun 28
Full
Jul 6
Last Quarter
Jul 12
New

Hourly Weather History & Observations

Time (EDT) Temp. Heat Index Dew Point Humidity Pressure Visibility Wind Dir Wind Speed Gust Speed Precip Events Conditions
12:56 AM 75.0 °F - 70.5 °F 86% 29.97 in 10.0 mi SSW 5.8 mph - N/A   Clear
1:56 AM 73.8 °F - 70.5 °F 90% 29.97 in 10.0 mi SW 4.6 mph - N/A   Clear
2:56 AM 73.4 °F - 71.2 °F 93% 29.95 in 8.0 mi Calm Calm - N/A   Clear
3:56 AM 73.0 °F - 71.2 °F 94% 29.94 in 8.0 mi SSW 5.8 mph - N/A   Clear
4:56 AM 73.0 °F - 71.2 °F 94% 29.95 in 7.0 mi WSW 5.8 mph - N/A   Clear
5:56 AM 73.0 °F - 71.2 °F 94% 29.95 in 9.0 mi SW 4.6 mph - N/A   Clear
6:56 AM 73.8 °F - 72.0 °F 94% 29.96 in 9.0 mi SW 4.6 mph - N/A   Clear
7:56 AM 77.0 °F - 72.5 °F 86% 29.96 in 10.0 mi WSW 9.2 mph - N/A   Partly Cloudy
8:56 AM 80.4 °F 84.7 °F 72.5 °F 77% 29.95 in 10.0 mi SW 11.5 mph - N/A   Partly Cloudy
9:56 AM 83.5 °F 89.4 °F 72.7 °F 70% 29.96 in 10.0 mi WSW 12.7 mph - N/A   Partly Cloudy
10:56 AM 83.8 °F 88.9 °F 71.6 °F 66% 29.97 in 10.0 mi West 10.4 mph - N/A   Partly Cloudy
11:56 AM 85.6 °F 91.5 °F 72.0 °F 63% 29.97 in 10.0 mi WSW 9.2 mph - N/A   Mostly Cloudy
12:56 PM 88.5 °F 94.4 °F 71.2 °F 56% 29.94 in 10.0 mi West 8.1 mph - N/A   Scattered Clouds
1:56 PM 90.5 °F 97.0 °F 71.4 °F 53% 29.92 in 10.0 mi NW 6.9 mph - N/A   Scattered Clouds
2:56 PM 89.8 °F 96.5 °F 71.4 °F 55% 29.89 in 10.0 mi North 8.1 mph - N/A   Mostly Cloudy
3:56 PM 92.8 °F 97.6 °F 68.9 °F 45% 29.89 in 10.0 mi NW 5.8 mph - N/A   Scattered Clouds
4:56 PM 90.7 °F 95.9 °F 70.0 °F 50% 29.89 in 10.0 mi NNE 5.8 mph - N/A   Scattered Clouds
5:56 PM 90.1 °F 94.9 °F 69.4 °F 50% 29.89 in 10.0 mi NNE 3.5 mph - N/A   Scattered Clouds
6:31 PM 84.2 °F 92.3 °F 75.2 °F 74% 29.90 in 10.0 mi SSE 8.1 mph - N/A Thunderstorm Mostly Cloudy
6:56 PM 82.9 °F 89.7 °F 74.1 °F 75% 29.91 in 10.0 mi South 6.9 mph - N/A Thunderstorm Mostly Cloudy
7:22 PM 80.6 °F 85.4 °F 73.4 °F 79% 29.91 in 10.0 mi SSE 6.9 mph - N/A   Mostly Cloudy
7:56 PM 79.3 °F - 72.9 °F 80% 29.91 in 10.0 mi SSE 9.2 mph - N/A   Clear
8:56 PM 76.3 °F - 73.0 °F 90% 29.93 in 10.0 mi WSW 3.5 mph - N/A   Clear
9:56 PM 75.6 °F - 72.7 °F 91% 29.94 in 10.0 mi SW 5.8 mph - N/A   Clear
10:56 PM 74.7 °F - 71.8 °F 91% 29.94 in 10.0 mi SW 4.6 mph - N/A   Clear
11:56 PM 73.4 °F - 70.5 °F 91% 29.94 in 10.0 mi Calm Calm - N/A   Clear